Tracking 28126 objects as of 1-Oct-2023
HD Live streaming from Space Station
objects crossing your sky now

COSMOS 839 DEB

Track COSMOS 839 DEB now!
10-day predictions


NORAD ID: 10444
Int'l Code: 1976-067V
Perigee: 876.6 km
Apogee: 2,055.4 km
Inclination: 65.8 °
Period: 115.1 minutes
Semi major axis: 7836 km
RCS: 0.0139 m2 (small)
Launch date: July 8, 1976
Source: Commonwealth of Independent States (former USSR) (CIS)
Launch site: PLESETSK MISSILE AND SPACE COMPLEX (PKMTR)

Note: This is SATELLITE DEBRIS
Your satellite tracking list
Your tracking list is empty




NASA's NSSDC Master Catalog

Two Line Element Set (TLE):
1 10444U 76067V   23273.36077558  .00000058  00000-0  26669-3 0  9992
2 10444  65.7946 259.6513 0752057 246.0411 106.0109 12.51349816155308
Source of the keplerian elements: AFSPC